Location: Ffald-y-Brenin
(52.0833°N, 4.0000°W)
Time: 08:39:08
(UTC+00:00)

BREEZE-M DEB (TANK) - Pass Details

Date: 18 February 2020
Orbit: 670 x 22259 km, 51.2° (Epoch: 03 April)

Event Time Altitude Azimuth Distance (km) Brightness Sun altitude
Exits shadow 03:54:25 76° 193° (SSW) 1,387 4.0 -32.6°
Maximum altitude 03:54:43 77° 168° (SSE) 1,340 4.0 -32.6°
Drops below altitude 10° 03:59:27 10° 82° (E) 2,407 6.4 -31.9°
Sets 04:01:03 0° 81° (E) 3,140 7.2 -31.7°
